Regional Weather Roundup
Issued by NWS

Home | Current Version | Previous Version | Graphics & Text | Print | Product List | Glossary On
Versions: 1 2 3 4 5 6 7 8 9 10 11 12 13 14 15 16 17 18 19 20 21 22 23 24 25 26 27 28 29 30 31 32 33 34 35 36 37 38 39 40 41 42 43 44 45 46 47 48 49 50
000
ASUS43 KLMK 222010
RWRKY
KENTUCKY REGIONAL WEATHER ROUNDUP
NATIONAL WEATHER SERVICE LOUISVILLE KY
400 PM EDT TUE MAY 22 2018

NOTE "FAIR" INDICATES FEW OR NO CLOUDS BELOW 12,000 FEET
WITH NO SIGNIFICANT WEATHER AND/OR OBSTRUCTIONS TO VISIBILITY.

KYZ001>023-026-027-061>063-070>075-222100-
WESTERN AND SOUTH CENTRAL KENTUCKY

CITY           SKY/WX    TMP DP  RH WIND       PRES   REMARKS
PADUCAH        FAIR      88  69  53 NW3       30.00F HX  92
HENDERSON      NOT AVBL
OWENSBORO      FAIR      82  73  74 S7        29.99F
HOPKINSVILLE   LGT RAIN  75  68  78 S5G18     30.01F
BOWLING GREEN  PTSUNNY   76  71  85 NE15G24   30.04R THUNDER
GLASGOW        RAIN      69  67  95 CALM      30.04F
$$

KYZ024-025-028>034-038-045-046-053-222100-
NORTH CENTRAL KENTUCKY

CITY           SKY/WX    TMP DP  RH WIND       PRES   REMARKS
LOUISVILLE/SDF PTSUNNY   82  69  64 VRB7      29.99F
LOUISVILLE/LOU FAIR      83  72  69 S8        30.00F
FORT KNOX      FAIR      80  69  69 S3        30.02F
$$

KYZ035>037-039>044-047>052-055>060-089>105-222100-
NORTHEAST KENTUCKY

CITY           SKY/WX    TMP DP  RH WIND       PRES   REMARKS
LEXINGTON      FAIR      79  69  71 SW12      30.04F
COVINGTON      PTSUNNY   81  69  67 S9        29.99F
FRANKFORT      FAIR      81  67  62 W7        30.01F
$$

KYZ054-064>069-076>088-106>120-222100-
SOUTHEAST KENTUCKY

CITY           SKY/WX    TMP DP  RH WIND       PRES   REMARKS
JACKSON        LGT RAIN  71  68  90 VRB3      30.08R FOG
LONDON         LGT RAIN  75  67  76 VRB5      30.07F
SOMERSET       PTSUNNY   77  66  69 MISG      30.07S THUNDER
MIDDLESBORO    CLOUDY    78  69  72 NE5       30.07F
MONTICELLO     FAIR      82  68  61 W12G18    30.06F
$$





USA.gov is the U.S. government's official web portal to all federal, state and local government web resources and services.